Погода в Рославле

Погода в Рославле : погода сейчас, прогноз погоды и архив. Всё, что Вы хотите узнать о погоде в Рославле!

Хотите узнать прогноз погоды в Рославле? Тогда Вам сюда: Погода в Рославле

Поиск расширенной информации на нашем сайте:

Другие новости

Новости СМИ2

Главная страница сайта

Новости сайта

03.07.2017

Напоминаем, что на нашем специализированном сайте Метеоцентр.Азия вы можете получить высокодетализированные автоматические прогнозы погоды по пунктам России, СНГ и мира в авиационном формате (включающие направление и скорость ветра, видимость, явления погоды, количество и форму облачности, нижнюю и верхнюю границу облачности).

Рекомендуем: аренда дома одесса

Погода в Рославле - сегодня

Время (UTC), дата Ветер
(°,м/с) 
Видим.   Явления Облачность Т
(°С)
Тd
(°С)
f(%) Тe
(°С)
Pmin
(гПа)
dP
(гПа)
Po
(мм)
O2
(г/м3)
Тmin Tmax R s Состояние
почвы
09 11.12.17 250 (З) 20000 м  {снег}  9/8 420 м средняя 
[Sc|Ac trans]
-1.9 -3.1 91 -5  1006.1  3.3  734  298           
12 11.12.17 180 (Ю) 20000 м  {снег}  9/3 600 м средняя 
[Sc|Ac trans]
-1.6 -3.1 89 -4  1006.7  0.6  734  298           
15 11.12.17 180 (Ю) 50000 м    9/3 600 м средняя 
[Sc|Ac trans]
-1.9 -3.2 91 -4  1008.1  1.4  735  299      0.0     
18 11.12.17 200 (Ю) 50000 м    9/4 600 м средняя 
[Sc|Ac trans]
-1.8 -2.9 92 -5  1009  0.9  736  299    -1.2  0.0     
21 11.12.17 140 (ЮВ) 18000 м    9/9 330 м 
[Sc]
-1.8 -2.6 94 -4  1010.2  1.2  737  299           
00 12.12.17 140 (ЮВ) 12000 м    9/9 330 м 
[Sc]
-1.1 -1.6 96 -2  1010.9  0.7  737  298           
03 12.12.17 140 (ЮВ) 14000 м    9/9 330 м 
[Sc]
-1.2 -1.8 96 -3  1010.6  -0.4  737  298  -1.8         
06 12.12.17 130 (ЮВ) 12000 м    9/9 360 м 
[Sc]
-0.6 -1.3 95 -2  1009.9  -0.6  737  298  -1.8      мокрый или
старый снег
50-90% 
09 12.12.17 130 (ЮВ) 15000 м    9/9 360 м 
[Sc]
+0.3 -0.5 94 -2  1009.2  -0.6  736  296           
12 12.12.17 150 (ЮВ) 12000 м    9/9 360 м 
[Sc]
+1 +0.3 95 -1  1008.1  -1  735  295           
15 12.12.17 170 (Ю) 18000 м    9/9 420 м 
[Sc]
+1.4 +0.5 94 -1  1008.3  0.2  736  295           
18 12.12.17 180 (Ю) 18000 м    9/9 420 м 
[Sc]
+1.4 +0.4 93 -1  1008.2  0.1  735  295    +1.5       
21 12.12.17 210 (ЮЗ) 20000 м    9/9 480 м 
[Sc]
+1.8 +0.7 92 1008.5  0.3  736  294           
00 13.12.17 190 (Ю) 18000 м    9/9 480 м 
[Sc]
+2 +1 93 1008.8  0.3  736  294           
03 13.12.17 220 (ЮЗ) 8000 м  дымка  9/9 360 м 
[Sc]
+1.9 +1.3 96 1010.1  1.2  737  295  +1.3         
06 13.12.17 230 (ЮЗ) 8000 м  дымка  10/6 300 м средняя 
[Sc|Ac As]
+2.4 +1.8 96 +1  1011.3  1.2  738  294  +1.3      мокрый или
старый снег
50-90% 
09 13.12.17 260 (З) 20000 м    9/3 300 м средняя 
[Sc|Ac trans]
+2.9 -0.1 81 +2  1013.1  1.9  739  295           
12 13.12.17 250 (З) 20000 м    9/3 600 м средняя 
[Sc|Ac trans]
+2.3 -0.2 84 +1  1013.4  0.2  739  295           
15 13.12.17 210 (ЮЗ) 50000 м    9/0 средняя 
[Ac und]
+0.9 -0.6 90 +2  1014.1  0.5  740  297           
18 13.12.17 220 (ЮЗ) 25000 м    9/0 средняя 
[Ac trans]
-0.2 -0.6 97 -1  1014.6  0.4  740  298    +2.9       
21 13.12.17 270 (З) 9000 м  дымка  10/0 средняя 
[Ac As]
-1.3 -1.6 98 -1  1014.1  -0.6  740  300           
00 14.12.17 тихо ()   8000 м  дымка  10/0 средняя 
[Ac As]
-1.6 -1.8 99 -2  1013.6  -0.5  739  300           
03 14.12.17 070 (В) 4800 м  дымка  10/10 300 м 
[St]
-1.7 -1.9 99 -1  1011.9  -1.7  738  299  -1.8         
06 14.12.17 120 (ЮВ) 0900 м  туман [диам. гололёда 1 мм]  9/0 средняя 
[Ac trans]
-2.4 -2.6 99 -2  1010.5  -1.4  737  300  -3.5      мокрый или
старый снег
50-90% 
09 14.12.17 120 (ЮВ) 1200 м  дымка{туман} [диам. гололёда 1 мм]  10/10 210 м 
[St]
-0.8 -1 99 1009.3  -1  736  298           
Время (UTC), дата Ветер
(°,м/с) 
Видим.   Явления Облачность Т
(°С)
Тd
(°С)
f(%) Тe
(°С)
Pmin
(гПа)
dP
(гПа)
Po
(мм)
O2
(г/м3)
Тmin Tmax R s Состояние
почвы

Для получения пояснительной информации подведите курсор к названию столбца.

ПОГОДА в Рославле - архив

Всё, что Вы хотите узнать о погоде в Рославле - удобно и подробно!

Выберите нужную дату (начиная с 1 января 2015* года) и нажмите кнопку "Найти".
Будут отображены архивные сводки погоды по пункту Рославль, начиная с указанной даты.


Отображать данные в формате CSV (для использования в таблицах Excel)


Внимание! Наш архив погоды предназначен исключительно для личного некоммерческого использования в познавательных целях. Если Вам необходимы официальные справки о состоянии погоды (для производственных, юридических, коммерческих и т.п. целей), обращайтесь в органы Росгидромета.

*Примечание: данная дата относится к архиву по метеостанциям СССР (Россия, СНГ, Балтия).
Архив по метеостанциям Зарубежной Европы и Азии (кроме Китая) хранится 10 дней, по другим регионам земного шара (Китай, Африка, Америка, Австралия, Океания) - 1 день.

Рославль - район местоположения метеостанции


Название, широта, долгота, высота метеостанции:
Рославль 53.9°ш. 32.8°д. 224 м над ур. моря [Российская Федерация]

Дополнительная информация

В oтличие oт бoльшинства пoгoдных сайтoв мы публикуем пoдрoбную метеoинфoрмацию в детальнoм прoфессиoнальнoм фoрмате.

Характеристики температуры и влажнoсти вoздуха измеряются на высoте 2 м в тени вдали oт зданий и деревьев.
Скoрoсть ветра измеряется на высoте 10 м (на урoвне рoста челoвека скoрoсть ветра ниже в 1.5-2 раза). Если метеoстанция нахoдится в гoрoде или в лесу, тo скoрoсть ветра занижена на 2-4 м/с пo сравнению с oткрытым местoм. Скoрoсть ветра над акватoриями крупных рек и oзёр, а также на вершинах хoлмoв на 2-5 м/с выше, чем в oбычных услoвиях.
Атмoсфернoе давление в разных тoчках местнoсти мoжет значительнo oтличаться oт давления на метеoстанции, в зависимoсти oт услoвий рельефа (при пoдъёме на 10 м давление пoнижается примернo на 1 мм рт.ст.).